FW3057 Weather Reports


Display with metric or nautical units.
time (UTC)temp
F
wind
direction
speed
MPH
gust
MPH
rain 1hr
in
rain 24hr
in
rain mn
in
humidity
%
barometer
mb
20220120043309 45 68 6.0 10.0 0.00 0.00 0.00 82 1033.0
20220120042308 45 356 8.0 12.0 0.00 0.00 0.00 81 1032.8
20220120041308 45 4 6.0 13.0 0.00 0.00 0.00 81 1033.1
20220120040308 46 1 5.0 13.0 0.00 0.00 0.00 82 1033.0
20220120035308 46 16 5.0 13.0 0.00 0.00 0.00 83 1033.2
20220120034308 46 344 6.0 14.0 0.00 0.00 0.00 83 1033.3
20220120033313 46 341 7.0 16.0 0.00 0.00 0.00 81 1033.3
20220120032313 46 20 6.0 12.0 0.00 0.00 0.00 83 1033.2
20220120031313 46 6 7.0 10.0 0.00 0.00 0.00 82 1033.2
20220120030313 46 1 6.0 13.0 0.00 0.00 0.00 82 1033.1
20220120025313 47 346 3.0 9.0 0.00 0.00 0.00 84 1033.1
20220120024313 47 140 2.0 8.0 0.00 0.00 0.00 84 1033.1
20220120023313 47 46 5.0 11.0 0.00 0.00 0.00 84 1033.2
20220120022313 47 53 6.0 12.0 0.00 0.00 0.00 83 1033.0
20220120021313 47 56 5.0 14.0 0.00 0.00 0.00 84 1032.7
20220120020312 47 46 5.0 8.0 0.00 0.00 0.00 84 1032.8
20220120015312 46 28 5.0 11.0 0.00 0.00 0.00 83 1032.7
20220120014312 47 28 4.0 9.0 0.00 0.00 0.00 83 1032.7
20220120013312 47 30 4.0 13.0 0.00 0.00 0.00 82 1032.6
20220120012312 47 77 7.0 11.0 0.00 0.00 0.00 82 1032.6
20220120011312 47 46 5.0 12.0 0.00 0.00 0.00 83 1032.6
20220120010312 47 75 8.0 13.0 0.00 0.00 0.00 82 1032.6
20220120005312 47 58 7.0 12.0 0.00 0.00 0.00 82 1032.6
20220120004312 47 88 8.0 15.0 0.00 0.00 0.00 82 1032.5
20220120003312 47 63 7.0 15.0 0.00 0.00 0.00 81 1032.5
20220120002312 47 52 5.0 14.0 0.00 0.00 0.00 82 1032.6
20220120001312 47 51 8.0 15.0 0.00 0.00 0.00 82 1032.5
20220120000312 47 54 5.0 18.0 0.00 0.00 0.00 84 1032.5
20220119235312 48 63 5.0 11.0 0.00 0.00 0.00 86 1032.4
20220119234312 48 68 6.0 10.0 0.00 0.00 0.00 85 1032.2
20220119233311 48 44 6.0 13.0 0.00 0.00 0.00 85 1032.1
20220119232311 48 34 5.0 11.0 0.00 0.00 0.00 88 1032.0
20220119231311 48 8 4.0 10.0 0.00 0.00 0.00 89 1031.9
20220119230311 48 8 7.0 10.0 0.00 0.00 0.00 89 1031.9
20220119225311 48 342 3.0 8.0 0.00 0.02 0.02 88 1031.9
20220119224311 48 351 3.0 7.0 0.00 0.02 0.02 87 1031.7
20220119223311 48 11 4.0 11.0 0.00 0.02 0.02 87 1031.8
20220119222311 48 8 4.0 10.0 0.00 0.02 0.02 85 1031.7
20220119221311 48 3 7.0 13.0 0.00 0.02 0.02 85 1031.6
20220119220311 48 321 6.0 13.0 0.00 0.02 0.02 85 1031.6
20220119215311 48 321 4.0 10.0 0.00 0.02 0.02 85 1031.5
20220119214310 48 321 5.0 10.0 0.00 0.02 0.02 86 1031.5
20220119213311 48 20 5.0 11.0 0.00 0.02 0.02 87 1031.4
20220119212310 47 11 6.0 13.0 0.00 0.02 0.02 88 1031.1
20220119211311 47 331 5.0 16.0 0.00 0.02 0.02 89 1030.8
20220119210310 48 49 8.0 17.0 0.00 0.02 0.02 91 1030.9
20220119205310 48 4 9.0 16.0 0.00 0.02 0.02 91 1030.8
20220119204310 48 336 9.0 18.0 0.00 0.02 0.02 92 1030.6
20220119203310 48 8 6.0 13.0 0.00 0.02 0.02 94 1030.6
20220119202310 48 13 9.0 17.0 0.00 0.02 0.02 94 1030.5
20220119201310 48 310 9.0 16.0 0.00 0.02 0.02 95 1030.5
20220119200310 49 351 9.0 16.0 0.00 0.02 0.02 95 1030.3
20220119195310 49 302 7.0 18.0 0.00 0.02 0.02 96 1030.3
20220119194310 49 335 6.0 13.0 0.00 0.02 0.02 96 1030.2
20220119193310 49 331 8.0 14.0 0.00 0.02 0.02 96 1030.0
20220119192310 49 329 6.0 9.0 0.00 0.02 0.02 96 1030.0
20220119191309 49 25 5.0 9.0 0.00 0.02 0.02 96 1029.9
20220119190310 49 314 6.0 8.0 0.00 0.02 0.02 96 1029.9
20220119185309 49 329 4.0 9.0 0.00 0.02 0.02 96 1029.8
20220119184310 49 311 3.0 11.0 0.00 0.02 0.02 96 1029.8
20220119183309 49 306 5.0 10.0 0.00 0.02 0.02 96 1029.7
20220119182309 49 336 5.0 10.0 0.00 0.02 0.02 97 1029.7
20220119181309 49 311 7.0 10.0 0.00 0.02 0.02 97 1029.7
20220119180309 49 329 5.0 13.0 0.00 0.02 0.02 97 1029.8
20220119175309 49 346 6.0 10.0 0.00 0.02 0.02 97 1029.4
20220119174309 49 350 7.0 10.0 0.00 0.02 0.02 97 1029.3
20220119173309 49 257 4.0 9.0 0.00 0.02 0.02 97 1029.3
20220119172309 49 305 5.0 8.0 0.00 0.02 0.02 97 1029.1
20220119171308 48 269 4.0 6.0 0.00 0.02 0.02 96 1029.0
20220119170309 48 318 3.0 6.0 0.00 0.02 0.02 96 1028.7
20220119165309 48 281 4.0 7.0 0.00 0.02 0.02 96 1028.5
20220119164308 48 272 4.0 9.0 0.00 0.02 0.02 96 1028.5
20220119163308 48 276 4.0 10.0 0.00 0.02 0.02 96 1028.2
20220119162313 48 281 6.0 11.0 0.00 0.02 0.02 96 1028.1
20220119161314 48 276 6.0 9.0 0.00 0.02 0.02 96 1027.9
20220119160313 48 302 7.0 13.0 0.00 0.02 0.02 96 1027.7
20220119155313 48 276 7.0 13.0 0.00 0.02 0.02 96 1027.7
20220119154314 48 284 6.0 11.0 0.00 0.02 0.02 96 1027.7
20220119153313 48 262 5.0 11.0 0.00 0.02 0.02 96 1027.6
20220119152313 48 228 7.0 11.0 0.00 0.02 0.02 96 1027.5
20220119151313 48 281 6.0 12.0 0.00 0.02 0.02 96 1027.6
20220119150312 48 237 6.0 11.0 0.00 0.02 0.02 96 1027.5
20220119145313 47 217 5.0 11.0 0.00 0.02 0.02 96 1027.7
20220119144312 47 227 6.0 9.0 0.00 0.02 0.02 96 1027.9
20220119143312 47 203 4.0 10.0 0.00 0.02 0.02 96 1027.9
20220119142312 47 255 6.0 9.0 0.00 0.02 0.02 96 1028.1
20220119141312 47 269 5.0 13.0 0.01 0.02 0.02 96 1028.1
20220119140312 46 225 6.0 9.0 0.01 0.02 0.02 96 1028.2
20220119135312 46 226 4.0 10.0 0.01 0.02 0.02 96 1028.6
20220119134312 46 235 4.0 9.0 0.01 0.02 0.02 95 1028.8
20220119133312 46 231 4.0 9.0 0.01 0.02 0.02 95 1028.9
20220119132312 46 240 2.0 10.0 0.02 0.02 0.02 95 1028.8
20220119131312 46 223 5.0 9.0 0.01 0.01 0.01 95 1029.1
20220119130312 46 229 4.0 13.0 0.01 0.01 0.01 95 1029.0
20220119125312 46 178 5.0 12.0 0.01 0.01 0.01 94 1029.3
20220119124312 46 233 5.0 12.0 0.01 0.01 0.01 94 1029.3
20220119123311 45 222 5.0 8.0 0.01 0.01 0.01 93 1029.4
20220119122311 45 213 3.0 10.0 0.00 0.00 0.00 92 1029.6
20220119121311 45 223 6.0 10.0 0.00 0.00 0.00 92 1029.9
20220119120311 45 246 4.0 8.0 0.00 0.00 0.00 91 1030.1
20220119115311 45 213 4.0 7.0 0.00 0.00 0.00 90 1030.3
20220119114311 46 221 2.0 6.0 0.00 0.00 0.00 89 1030.3
20220119113311 46 227 4.0 9.0 0.00 0.00 0.00 89 1030.5
20220119112311 46 202 3.0 8.0 0.00 0.00 0.00 88 1030.5
20220119111311 46 269 3.0 7.0 0.00 0.00 0.00 87 1030.6
20220119110311 46 237 3.0 7.0 0.00 0.00 0.00 87 1030.6
20220119105311 46 279 5.0 9.0 0.00 0.00 0.00 87 1030.8
20220119104311 46 264 5.0 8.0 0.00 0.00 0.00 86 1030.9
20220119103311 46 284 4.0 9.0 0.00 0.00 0.00 86 1030.8
20220119102310 45 271 5.0 8.0 0.00 0.00 0.00 86 1031.0
20220119101310 45 271 5.0 9.0 0.00 0.00 0.00 86 1030.8
20220119100310 45 269 3.0 8.0 0.00 0.00 0.00 87 1030.7
20220119095310 45 197 4.0 7.0 0.00 0.00 0.00 87 1030.8
20220119094310 45 283 3.0 8.0 0.00 0.00 0.00 87 1030.8
20220119093311 44 245 3.0 7.0 0.00 0.00 0.00 88 1030.9
20220119092310 43 236 3.0 6.0 0.00 0.00 0.00 88 1030.9
20220119091310 43 286 3.0 6.0 0.00 0.00 0.00 88 1031.0
20220119090310 42 250 2.0 6.0 0.00 0.00 0.00 88 1031.1
20220119085310 42 223 3.0 6.0 0.00 0.00 0.00 89 1031.2
20220119084309 42 276 3.0 6.0 0.00 0.00 0.00 89 1031.1
20220119083310 42 210 3.0 8.0 0.00 0.00 0.00 89 1030.9
20220119082309 42 262 6.0 9.0 0.00 0.00 0.00 90 1030.9
20220119081309 42 288 5.0 9.0 0.00 0.00 0.00 90 1030.8
20220119080309 42 269 3.0 8.0 0.00 0.00 0.00 90 1030.6
20220119075309 42 278 5.0 7.0 0.00 0.00 0.00 91 1030.6
20220119074309 41 283 3.0 5.0 0.00 0.00 0.00 91 1030.4
20220119073309 41 269 2.0 3.0 0.00 0.00 0.00 91 1030.3
20220119072309 41 226 2.0 4.0 0.00 0.00 0.00 91 1030.3
20220119071309 41 258 3.0 6.0 0.00 0.00 0.00 91 1030.5
20220119070309 41 265 4.0 8.0 0.00 0.00 0.00 92 1030.6
20220119065309 41 262 4.0 8.0 0.00 0.00 0.00 92 1030.5
20220119064309 41 286 4.0 8.0 0.00 0.00 0.00 92 1030.5
20220119062310 41 285 4.0 6.0 0.00 0.00 0.00 93 1030.7
20220119061310 41 269 4.0 6.0 0.00 0.00 0.00 93 1031.0
20220119060310 41 232 6.0 8.0 0.00 0.00 0.00 93 1031.2
20220119055309 41 276 4.0 10.0 0.00 0.00 0.00 93 1031.2
20220119054310 41 290 2.0 9.0 0.00 0.00 0.00 93 1031.2
20220119053309 41 234 3.0 7.0 0.00 0.00 0.00 93 1031.1
20220119052309 41 288 3.0 6.0 0.00 0.00 0.00 93 1031.1
20220119051309 41 234 3.0 7.0 0.00 0.00 0.00 93 1031.1
20220119050309 40 269 4.0 7.0 0.00 0.00 0.00 93 1031.3
20220119045309 40 281 5.0 8.0 0.00 0.00 0.00 93 1031.3
20220119044309 40 223 4.0 8.0 0.00 0.00 0.00 93 1031.3